Location: Newark
(30.1000°N, 109.4667°E)
Time: 14:59:40
(UTC+00:00)

SR - Pass Details

Date: 22 February 2020
Orbit: 578 x 878 km, 66.7° (Epoch: 08 April)

Event Time Altitude Azimuth Distance (km) Brightness Sun altitude
Rises 18:14:37 0° 321° (NW) 3,159 - -62.9°
Reaches altitude 10° 18:17:24 10° 309° (NW) 2,177 - -62.5°
Maximum altitude 18:21:25 26° 254° (WSW) 1,322 - -61.8°
Drops below altitude 10° 18:25:11 10° 198° (SSW) 2,017 - -61.2°
Sets 18:27:40 0° 185° (S) 2,879 - -60.8°
